Miscellaneous Local Product
Issued by NWS Hastings, NE

Home | Current Version | Previous Version | Graphics & Text | Print | Product List | Glossary On
Versions: 1 2 3 4 5 6 7 8 9 10 11 12 13 14 15 16 17 18 19 20 21 22 23 24 25 26 27 28 29 30 31 32 33 34 35 36 37 38 39 40 41 42 43 44 45 46 47 48 49 50
428
AXUS43 KGID 240902
MISGRI

GID CWA HOURLY WEATHER ROUNDUP
NATIONAL WEATHER SERVICE HASTINGS NE
400 AM CDT SUN SEP 24 2017

NOTE: "FAIR" INDICATES FEW OR NO CLOUDS BELOW 12,000 FEET WITH NO
SIGNIFICANT WEATHER AND/OR OBSTRUCTIONS TO VISIBILITY.

...SOUTH CENTRAL NEBRASKA...

CITY           SKY/WX    TMP DP  RH WIND       PRES   REMARKS
GRAND ISLAND   PTCLDY    69  63  81 SW9       29.88R
HASTINGS       PTCLDY    71  61  70 S10       29.88S
KEARNEY        CLOUDY    59  58  96 NE3       29.87F
ORD            LGT RAIN  57  55  93 CALM      29.86F
YORK           PTCLDY    70  63  78 SE9       29.88F
AURORA         PTCLDY    67  62  84 S8        29.87F
LEXINGTON      CLOUDY    60  58  95 E8        29.85F
HOLDREGE       CLOUDY    60  59  96 E3        29.86S
HEBRON         PTCLDY    69  63  80 SE6       29.89F

...NEBRASKA PANHANDLE...

CITY           SKY/WX    TMP DP  RH WIND       PRES   REMARKS
CHADRON        CLOUDY    46  44  93 N8        30.00R
ALLIANCE       CLOUDY    45  43  93 N7        29.93F
SCOTTSBLUFF    CLOUDY    46  43  89 NW8       29.97F
SIDNEY         CLOUDY    44  43  96 N12       29.92F

...WESTERN AND NORTH CENTRAL NEBRASKA...

CITY           SKY/WX    TMP DP  RH WIND       PRES   REMARKS
VALENTINE      LGT RAIN  51  49  92 W5        29.94R FOG
AINSWORTH      LGT RAIN  50  50 100 NW3       29.91S
ONEILL         FOG       54  54 100 CALM      29.89F VSB 1/4
BROKEN BOW     CLOUDY    55  54  96 NE5       29.86F
IMPERIAL       LGT RAIN  49  47  93 N10       29.90F
NORTH PLATTE   HVY RAIN  52  51  97 NW12      29.88S FOG
MCCOOK         CLOUDY    59  59 100 E5        29.85R

...EASTERN NEBRASKA...

CITY           SKY/WX    TMP DP  RH WIND       PRES   REMARKS
NORFOLK        CLOUDY    59  58  96 SE6       29.86F
SO SIOUX CITY  CLEAR     60  59  96 E5        29.89S
TEKAMAH        PTCLDY    68  64  87 SE6       29.90R
COLUMBUS       PTCLDY    72  63  73 SE13      29.88S
ALBION         MOCLDY    59  58  96 CALM      29.88S
OMAHA EPPLEY   MOCLDY    73  65  75 S7        29.91S
OFFUTT AFB     CLEAR     65  63  94 E6        29.91S
MILLARD        CLEAR     72  66  81 E6        29.91S
LINCOLN        CLEAR     70  62  76 S7        29.90S
NEBRASKA CITY  CLEAR     71  68  90 S7        29.92S
BEATRICE       PTCLDY    71  63  76 SE6       29.91R
FALLS CITY     CLEAR     68  65  90 SE5       29.91F

...NORTHERN KANSAS...

CITY           SKY/WX    TMP DP  RH WIND       PRES   REMARKS
GOODLAND       HVY RAIN  50  49  96 N13       29.91R FOG
HILL CITY      LGT RAIN  68  66  93 S13       29.85F
NORTON         LGT RAIN  64  61  88 SE12G23   29.84R
PHILLIPSBURG   MOCLDY    73  61  64 SE9       29.85S
SMITH CENTER   PTCLDY    72  61  68 SE13      29.86F
HAYS           PTCLDY    72  62  71 S15       29.86S
RUSSELL        PTCLDY    72  62  71 S16       29.86S
CONCORDIA      CLEAR     70  64  81 SE7       29.89S
SALINA         CLEAR     75  64  68 SE10      29.88S
TOPEKA         CLEAR     70  67  90 E3        29.92F



USA.gov is the U.S. government's official web portal to all federal, state and local government web resources and services.